DW8852 Weather Reports


Display with metric or nautical units.
time (UTC)temp
F
wind
direction
speed
MPH
gust
MPH
rain 1hr
in
rain 24hr
in
rain mn
in
humidity
%
barometer
mb
20190723133113 65 269 0.0 4.0 0.00 0.00 0.00 77 1014.8
20190723131700 65 269 0.0 5.0 0.00 0.00 0.00 76 1014.8
20190723130137 64 269 1.0 5.0 0.00 0.00 0.00 77 1014.7
20190723124621 64 269 1.0 5.0 0.00 0.00 0.00 78 1014.6
20190723123118 63 269 0.0 2.0 0.00 0.00 0.00 79 1014.8
20190723121642 63 269 0.0 2.0 0.00 0.00 0.00 80 1014.7
20190723120132 62 268 1.0 6.0 0.00 0.00 0.00 79 1014.6
20190723114555 62 269 3.0 7.0 0.00 0.00 0.00 79 1014.5
20190723113117 62 269 2.0 7.0 0.00 0.00 0.00 79 1014.5
20190723111559 62 269 2.0 6.0 0.00 0.00 0.00 79 1014.3
20190723110100 62 269 1.0 6.0 0.00 0.00 0.00 79 1014.3
20190723104706 62 269 2.0 5.0 0.00 0.00 0.00 78 1014.2
20190723103118 63 269 1.0 6.0 0.00 0.00 0.00 78 1014.1
20190723101559 63 269 3.0 6.0 0.00 0.00 0.00 78 1014.2
20190723100109 63 269 1.0 5.0 0.00 0.00 0.00 78 1014.1
20190723094546 63 268 3.0 6.0 0.00 0.00 0.00 78 1013.9
20190723093054 63 268 0.0 6.0 0.00 0.00 0.00 78 1013.9
20190723091551 64 268 3.0 6.0 0.00 0.00 0.00 78 1013.7
20190723090031 64 268 2.0 7.0 0.00 0.00 0.00 77 1013.7
20190723084532 64 267 2.0 7.0 0.00 0.00 0.00 78 1013.7
20190723083116 64 267 2.0 6.0 0.00 0.00 0.00 78 1013.6
20190723081603 64 267 1.0 5.0 0.00 0.00 0.00 77 1013.6
20190723080054 64 267 1.0 6.0 0.00 0.00 0.00 77 1013.7
20190723074542 65 267 2.0 8.0 0.00 0.00 0.00 76 1013.6
20190723073042 65 267 1.0 6.0 0.00 0.00 0.00 75 1013.5
20190723071527 65 267 2.0 6.0 0.00 0.00 0.00 75 1013.6
20190723070024 65 267 1.0 6.0 0.00 0.00 0.00 75 1013.7
20190723064528 66 265 2.0 6.0 0.00 0.00 0.00 74 1013.7
20190723063023 66 270 2.0 10.0 0.00 0.00 0.00 73 1013.6
20190723061538 66 277 3.0 8.0 0.00 0.00 0.00 73 1013.5
20190723060033 66 278 2.0 6.0 0.00 0.00 0.00 72 1013.6
20190723054512 67 276 0.0 4.0 0.00 0.00 0.00 71 1013.7
20190723053007 67 276 3.0 8.0 0.00 0.00 0.00 70 1013.6
20190723051506 67 272 0.0 7.0 0.00 0.00 0.00 69 1013.5
20190723050002 67 276 1.0 7.0 0.00 0.00 0.00 69 1013.4
20190723044713 68 276 0.0 6.0 0.00 0.00 0.00 68 1013.4
20190723043113 68 275 1.0 6.0 0.00 0.00 0.00 67 1013.3
20190723041702 68 275 0.0 5.0 0.00 0.00 0.00 66 1013.2
20190723040323 68 275 0.0 4.0 0.00 0.00 0.00 65 1013.2
20190723034650 69 275 0.0 5.0 0.00 0.00 0.00 63 1013.2
20190723033223 69 275 0.0 5.0 0.00 0.00 0.00 62 1013.2
20190723031816 70 275 2.0 8.0 0.00 0.00 0.00 60 1013.2
20190723030119 70 275 0.0 5.0 0.00 0.00 0.00 58 1013.1
20190723024658 70 323 1.0 5.0 0.00 0.00 0.00 57 1012.8
20190723023330 70 329 0.0 4.0 0.00 0.00 0.00 57 1012.8
20190723021819 71 337 0.0 2.0 0.00 0.00 0.00 56 1012.7
20190723020142 71 338 0.0 4.0 0.00 0.00 0.00 55 1012.7
20190723014739 72 338 0.0 2.0 0.00 0.00 0.00 53 1012.6
20190723013248 73 343 0.0 4.0 0.00 0.00 0.00 52 1012.6
20190723011635 74 344 0.0 5.0 0.00 0.00 0.00 51 1012.4
20190723010240 75 347 0.0 5.0 0.00 0.00 0.00 50 1012.5
20190723004733 75 350 3.0 6.0 0.00 0.00 0.00 47 1012.4
20190723003114 76 306 2.0 7.0 0.00 0.00 0.00 46 1012.4
20190723001630 76 340 3.0 8.0 0.00 0.00 0.00 46 1012.4
20190723000118 76 318 5.0 9.0 0.00 0.00 0.00 45 1012.3
20190722234620 76 317 4.0 8.0 0.00 0.00 0.00 45 1012.4
20190722233134 76 287 3.0 8.0 0.00 0.00 0.00 45 1012.4
20190722231633 76 19 4.0 11.0 0.00 0.00 0.00 46 1012.5
20190722230141 77 11 3.0 8.0 0.00 0.00 0.00 48 1012.6
20190722224652 77 9 2.0 8.0 0.00 0.00 0.00 48 1012.7
20190722223141 77 360 4.0 13.0 0.00 0.00 0.00 46 1012.9
20190722221611 77 299 5.0 12.0 0.00 0.00 0.00 45 1013.1
20190722220118 76 279 3.0 9.0 0.00 0.00 0.00 47 1013.0
20190722214627 77 36 5.0 13.0 0.00 0.00 0.00 44 1013.0
20190722213209 77 34 6.0 11.0 0.00 0.00 0.00 45 1013.1
20190722211613 76 18 4.0 12.0 0.00 0.00 0.00 45 1013.1
20190722210134 76 9 8.0 14.0 0.00 0.00 0.00 46 1013.2
20190722204604 76 317 5.0 10.0 0.00 0.00 0.00 47 1013.2
20190722203150 75 13 4.0 10.0 0.00 0.00 0.00 52 1013.3
20190722201648 75 319 6.0 11.0 0.00 0.00 0.00 48 1013.5
20190722200120 74 41 4.0 11.0 0.00 0.00 0.00 51 1013.6
20190722194550 74 346 3.0 10.0 0.00 0.00 0.00 51 1013.8
20190722193115 74 24 4.0 11.0 0.00 0.00 0.00 50 1013.8
20190722191600 74 355 6.0 11.0 0.00 0.00 0.00 47 1013.9
20190722190110 74 10 3.0 12.0 0.00 0.00 0.00 49 1013.9
20190722184556 73 27 6.0 11.0 0.00 0.00 0.00 49 1014.0
20190722183058 72 26 5.0 13.0 0.00 0.00 0.00 53 1014.2
20190722181611 72 45 5.0 10.0 0.00 0.00 0.00 54 1014.3
20190722180056 72 43 6.0 11.0 0.00 0.00 0.00 56 1014.4
20190722174602 71 18 5.0 13.0 0.00 0.00 0.00 52 1014.5
20190722173037 72 34 4.0 10.0 0.00 0.00 0.00 53 1014.4
20190722171534 71 32 3.0 10.0 0.00 0.00 0.00 56 1014.4
20190722170042 71 60 4.0 13.0 0.00 0.00 0.00 51 1014.4
20190722164530 71 55 3.0 10.0 0.00 0.00 0.00 51 1014.4
20190722163025 70 5 6.0 13.0 0.00 0.00 0.00 52 1014.3
20190722161526 70 336 5.0 9.0 0.00 0.00 0.00 54 1014.3
20190722160033 69 70 6.0 11.0 0.00 0.00 0.00 50 1014.3
20190722154516 69 345 4.0 10.0 0.00 0.00 0.00 54 1014.4
20190722153011 68 40 4.0 13.0 0.00 0.00 0.00 57 1014.4
20190722151510 67 38 7.0 11.0 0.00 0.00 0.00 56 1014.3
20190722150013 67 26 5.0 12.0 0.00 0.00 0.00 59 1014.3
20190722144519 66 56 4.0 12.0 0.00 0.00 0.00 61 1014.3
20190722143009 66 36 5.0 10.0 0.00 0.00 0.00 63 1014.4
20190722141514 65 5 1.0 7.0 0.00 0.00 0.00 67 1014.4
20190722140005 64 32 1.0 5.0 0.00 0.00 0.00 68 1014.5
20190722134510 63 49 3.0 7.0 0.00 0.00 0.00 69 1014.4